Regional Weather Roundup
Issued by NWS Green Bay, WI

Home | Current Version | Previous Version | Text Only | Print | Product List | Glossary On
Versions: 1 2 3 4 5 6 7 8 9 10 11 12 13 14 15 16 17 18 19 20 21 22 23 24 25 26 27 28 29 30 31 32 33 34 35 36 37 38 39 40 41 42 43 44 45 46 47 48 49 50
000
ASUS43 KGRB 230500
RWRGRB

NORTH-CENTRAL AND NORTHEAST WISCONSIN REGIONAL WEATHER ROUNDUP
NATIONAL WEATHER SERVICE GREEN BAY WI
1200 AM CDT SAT SEP 23 2017

WIZ005-009-010>012-018-019-230600-
NORTH CENTRAL WISCONSIN

CITY           SKY/WX    TMP DP  RH WIND       PRES   REMARKS
IRONWOOD       CLEAR     78  67  68 S21G35    29.84F
MANITOWISH WTR NOT AVBL
ARBOR VITAE    NOT AVBL
EAGLE RIVER    NOT AVBL
LAND O LAKES   NOT AVBL
RHINELANDER    CLEAR     73  66  78 SW8       29.97F
PHILLIPS       NOT AVBL
ANTIGO         NOT AVBL
TOMAHAWK       NOT AVBL
MERRILL        NOT AVBL
$$

WIZ013-073-230600-
NORTHEAST WISCONSIN

CITY           SKY/WX    TMP DP  RH WIND       PRES   REMARKS
IRON MOUNTAIN  CLEAR     65  62  90 SE5       29.95F
MARINETTE      CLEAR     70  66  87 SW5       29.97F
$$

WIZ017-030-035>037-045-230600-
CENTRAL WISCONSIN

CITY           SKY/WX    TMP DP  RH WIND       PRES   REMARKS
MEDFORD        NOT AVBL
WAUSAU         CLEAR     76  66  71 S9        29.96S
MOSINEE        NOT AVBL
MARSHFIELD     CLEAR     72  64  76 S8        29.96F
WISC RAPIDS    CLEAR     76  65  68 S7        29.98F
STEVENS POINT  NOT AVBL
WAUPACA        NOT AVBL
SHAWANO        NOT AVBL
CLINTONVILLE   NOT AVBL
WAUTOMA        CLEAR     70  66  87 S5        29.99F
$$

WIZ038-039-048-051-230600-
FOX VALLEY

CITY           SKY/WX    TMP DP  RH WIND       PRES   REMARKS
NWS GREEN BAY  CLEAR     72  69  90 S6        29.99S
APPLETON       NOT AVBL
OSHKOSH        CLEAR     69  65  86 S7        29.99F
FOND DU LAC    CLEAR     71  64  78 S7        30.01S
$$

WIZ022-050-052-230600-
EAST CENTRAL WISCONSIN

CITY           SKY/WX    TMP DP  RH WIND       PRES   REMARKS
EPHRAIM        NOT AVBL
WASHINGTON ISL NOT AVBL
STURGEON BAY   CLEAR     71  66  84 S10       29.99F
MANITOWOC      CLEAR     70  66  87 S5        30.01S
SHEBOYGAN      CLEAR     65  65 100 CALM      30.02S FOG
$$

LMZ563-521-522-541>543-230600-
LAKESHORE

STATION/POSITION TIME  TEMP    WIND        PRES    VSBY  WAVE
                       AIR SEA DIR/SP/G                  HT/PER
                 (UTC) (F)     (DEG/KT/KT) (MB)    (MI)  (FT/S)
SHEBOYGAN LKSHOR 0400   72     190/  8/  9 1016.0F
KEWAUNEE LKSHORE 0430   64     180/  5/  6 1015.1F
NORTHPORT PIER   0440   71     170/  5/ 12 1014.6F
N MID LAKE BUOY  0350   69 66  180/  8/ 10 1015.9F         2/ 4
S GREEN BAY BUOY 0430   71 67  190/ 10/ 12 1015.0F
SISTER BAY LKSHO 0419   72     150/ 14/ 17   N/A
MENOMINEE LKSHOR 0430   71     190/  7/ 10 1014.6F
$$




USA.gov is the U.S. government's official web portal to all federal, state and local government web resources and services.